Voltar ao catálogo

STARLINK-36417

AtivoComunicaçõesSSO
NORAD 67533·PAYLOAD·🇺🇸 United States

Lançado Jan 22, 2026 de Vandenberg Space Force Base

Loading…

Próximas Passagens (próximas 24 horas)

TLE

AtualizadoSource: CelesTrak SupGP

Época: Sep 15, 2026, 02:51 UTC

1 67533C 26014B   26258.11923611  .00080903  00000+0  25106-2 0  2587
2 67533  97.2844 143.5059 0002129  97.8421 138.2427 15.33406487    11

Acompanhe STARLINK-36417 em tempo real com AllMySat

Download on the App Store